[[{"header":{"parameterUnit":"m.s-1","parameterCategory":1,"la1":30.2991,"la2":30.254,"lo1":-89.0895,"lo2":-89.0444,"dy":0.0017,"dx":0.0017,"nx":28,"ny":28,"refTime":"2025-12-11T09:00:00:Z","depth":0,"parameterNumber":2,"parameterNumberName":"U-component_of_WINDS"},"data":[0,0,0,0,0,0,0,0,0,0,0,0,0,0,0,0,0,0,0,0,0,0,0,0,0,0,0,0,0,0,0,0,0,0,0,0,0,0,0,0,0,0,0,0,0,0,0,0,0,0,0,0,0,0,0,0,0,0,0.9612,0.9612,0,0.9603,0.9603,0.9603,0.9596,0.9595,0.9595,0.9595,0.9584,0.9584,0.9584,0,0,0,0,0,0,0,0,0,0,0,0,0,0.9623,0.9623,0.9612,0.9612,0.9612,0.9603,0.9603,0.9603,0.9596,0.9595,0.9595,0.9595,0.9585,0.9584,0.9584,0,0,0,0,0,0,0,0,0,0,0,0,0,0.9616,0.9623,0.9612,0.9607,0.9607,0.9603,0.9603,0.9602,0.9596,0.9595,0.9595,0.9595,0.9585,0.9584,0.9584,0.9584,0,0,0.9583,0.9583,0,0,0,0,0,0,0,0,0.9617,0.9616,0.9608,0.9608,0.9607,0.96,0.9602,0.9596,0.9596,0.96,0.9595,0.9595,0.959,0.9589,0.9587,0.9583,0.9583,0.9583,0.9583,0.9582,0.9582,0,0,0,0,0,0,0,0.9617,0.9616,0.9608,0.9608,0.9607,0.9605,0.9604,0.9601,0.9595,0.9599,0.9599,0.9598,0.9589,0.9588,0.9587,0.9582,0.9583,0.9583,0.9582,0.9582,0.9578,0.9579,0,0,0,0,0,0,0.9618,0.9617,0.9609,0.9608,0.9612,0.9605,0.9604,0.9602,0.9595,0.9594,0.9598,0.9598,0.9588,0.9587,0.9587,0.9586,0.9582,0.9582,0.9582,0.9578,0.9578,0.9579,0,0,0,0,0,0,0.9619,0.9618,0.9609,0.9612,0.9611,0.9605,0.9603,0.9602,0.9601,0.9594,0.9593,0.9597,0.9588,0.9587,0.9585,0.9586,0.9582,0.9582,0.9578,0.9578,0.9579,0.9585,0,0,0,0,0,0,0.9619,0.9618,0.9618,0.9612,0.9611,0.9607,0.9603,0.9602,0.96,0.96,0.9593,0.9592,0.9588,0.9585,0.9584,0.9585,0.9581,0.9578,0.9578,0.9578,0.9585,0.9585,0.9586,0,0,0,0,0,0.9619,0.9619,0.9618,0.9617,0.9611,0.9607,0.9606,0.9602,0.96,0.96,0.9596,0.9592,0.9586,0.9585,0.9584,0.9585,0.9578,0.9578,0.9578,0.9584,0.9585,0.9586,0,0,0,0,0,0,0.9624,0.9619,0.9617,0.9615,0.9612,0.9606,0.9606,0.9603,0.96,0.9599,0.9594,0.9592,0.959,0.9587,0.9587,0.9584,0.9582,0.9582,0.9586,0.9587,0.9588,0.9588,0.9581,0,0,0,0,0,0.9625,0.9624,0.9619,0.9618,0.9616,0.9611,0.961,0.9607,0.9603,0.9601,0.9597,0.9594,0.9591,0.9589,0.9586,0.9585,0.9583,0.9585,0.9585,0.9586,0.9586,0.9585,0.9586,0.9579,0.9579,0.9579,0,0,0.9627,0.9624,0.9623,0.9618,0.9616,0.9614,0.961,0.9608,0.9607,0.9601,0.9599,0.9596,0.9591,0.959,0.9589,0.9587,0.9587,0.9586,0.9587,0.9586,0.9586,0.9586,0.9587,0.958,0.958,0.958,0,0,0.9629,0.9627,0.9626,0.9623,0.962,0.9617,0.9617,0.9612,0.961,0.9608,0.9603,0.9602,0.9597,0.9594,0.9592,0.9595,0.9591,0.9594,0.9597,0.9597,0.9597,0.9598,0.9599,0.9599,0.9594,0.9594,0.9594,0,0.9632,0.9629,0.9626,0.9624,0.9622,0.9618,0.9617,0.9615,0.961,0.9609,0.9608,0.9602,0.9599,0.9597,0.9598,0.9596,0.9596,0.9594,0.9597,0.9598,0.9598,0.9599,0.96,0.9594,0.9594,0.9594,0.9594,0,0.9633,0.9631,0.9631,0.9627,0.9625,0.9624,0.962,0.9619,0.9617,0.9614,0.9612,0.9608,0.9605,0.9604,0.9601,0.9602,0.9601,0.9599,0.9595,0.9599,0.96,0.96,0.9595,0.9595,0.9595,0.9594,0,0,0.9636,0.9632,0.9632,0.963,0.9627,0.9625,0.9624,0.9621,0.962,0.9618,0.9617,0.9613,0.9611,0.9609,0.9606,0.9606,0.9609,0.9604,0.9603,0.9605,0.9609,0.9611,0.9611,0.9607,0.9607,0.9607,0.961,0,0.9638,0.9636,0.9633,0.9632,0.9631,0.9628,0.9627,0.9624,0.9622,0.962,0.9618,0.9616,0.9613,0.9612,0.9612,0.9609,0.961,0.9608,0.9606,0.9606,0.9606,0.9612,0.9613,0.9616,0.961,0.961,0.961,0,0.9639,0.9637,0.9636,0.9633,0.9633,0.9632,0.963,0.9628,0.9626,0.9624,0.9622,0.962,0.9618,0.9616,0.9615,0.9614,0.9613,0.9611,0.9611,0.961,0.9608,0.9611,0.9617,0.9617,0.9611,0.9611,0.9611,0,0.9642,0.9639,0.9639,0.9638,0.9634,0.9634,0.9632,0.963,0.9629,0.9627,0.9626,0.9624,0.9622,0.9621,0.9617,0.9616,0.9616,0.9614,0.9615,0.9615,0.9614,0.9614,0.962,0.9614,0.9614,0.9614,0.9614,0,0.9644,0.9643,0.964,0.9639,0.9639,0.9636,0.9636,0.9634,0.9632,0.9631,0.9628,0.9627,0.9623,0.9622,0.962,0.9619,0.9618,0.9617,0.9616,0.9617,0.9617,0.9615,0.9615,0.9614,0.9614,0.9614,0.9614,0,0.9646,0.9644,0.9643,0.9641,0.964,0.964,0.9637,0.9637,0.9635,0.9634,0.9634,0.963,0.9629,0.9626,0.9623,0.9622,0.9621,0.962,0.9622,0.9622,0.9623,0.9623,0.9627,0.9628,0.9622,0.9623,0.9623,0,0.9647,0.9647,0.9645,0.9644,0.9643,0.9642,0.9641,0.9639,0.9638,0.9636,0.9635,0.9634,0.9632,0.963,0.9628,0.9626,0.9624,0.9626,0.9624,0.9625,0.9624,0.9624,0.9624,0.9626,0.9626,0.9626,0.9627,0,0.9649,0.9649,0.9648,0.9647,0.9646,0.9645,0.9643,0.9643,0.964,0.9639,0.9638,0.9637,0.9635,0.9634,0.9632,0.963,0.9628,0.9628,0.9628,0.9628,0.9629,0.9628,0.9623,0.9627,0.9627,0.9627,0.9627,0.9627,0.9651,0.9651,0.9649,0.9649,0.9648,0.9647,0.9646,0.9645,0.9644,0.9642,0.9641,0.964,0.9638,0.9636,0.9634,0.9634,0.9632,0.9632,0.9632,0.9632,0.9633,0.963,0.9633,0.9633,0.9633,0.9633,0.9633,0,0.9653,0.9652,0.9651,0.965,0.965,0.9648,0.9647,0.9647,0.9646,0.9645,0.9644,0.9643,0.9642,0.964,0.9638,0.9638,0.9637,0.9638,0.9637,0.9637,0.9634,0.9634,0.9639,0.9639,0.9639,0.9639,0.9639,0.9639,0.9653,0.9653,0.9653,0.9652,0.9651,0.9651,0.965,0.9649,0.9648,0.9647,0.9647,0.9646,0.9644,0.9643,0.9642,0.9641,0.9641,0.9642,0.9641,0.9638,0.9637,0.9637,0.9637,0.9642,0.9642,0.9644,0.9644,0.9644]},{"header":{"parameterUnit":"m.s-1","parameterCategory":1,"la1":30.2991,"la2":30.254,"lo1":-89.0895,"lo2":-89.0444,"dy":0.0017,"dx":0.0017,"nx":28,"ny":28,"refTime":"2025-12-11T09:00:00:Z","depth":0,"parameterNumber":3,"parameterNumberName":"V-component_of_WINDS"},"data":[0,0,0,0,0,0,0,0,0,0,0,0,0,0,0,0,0,0,0,0,0,0,0,0,0,0,0,0,0,0,0,0,0,0,0,0,0,0,0,0,0,0,0,0,0,0,0,0,0,0,0,0,0,0,0,0,0,0,-4.2686,-4.2687,0,-4.287,-4.2872,-4.2874,-4.2858,-4.2855,-4.2852,-4.2849,-4.3038,-4.3045,-4.3053,0,0,0,0,0,0,0,0,0,0,0,0,0,-4.2318,-4.2325,-4.2685,-4.2688,-4.269,-4.287,-4.2872,-4.2875,-4.2858,-4.2855,-4.2851,-4.2848,-4.3035,-4.3044,-4.3054,0,0,0,0,0,0,0,0,0,0,0,0,0,-4.2488,-4.2327,-4.2685,-4.2703,-4.2707,-4.2869,-4.2872,-4.2876,-4.2859,-4.2855,-4.285,-4.2846,-4.3032,-4.3044,-4.3055,-4.3211,0,0,-4.309,-4.3095,0,0,0,0,0,0,0,0,-4.2478,-4.2501,-4.2698,-4.2702,-4.2707,-4.2837,-4.2812,-4.2988,-4.286,-4.2801,-4.2849,-4.2844,-4.2974,-4.299,-4.3034,-4.322,-4.3228,-4.3091,-4.3098,-4.3103,-4.3106,0,0,0,0,0,0,0,-4.2466,-4.2493,-4.2758,-4.2701,-4.2706,-4.2702,-4.2722,-4.2845,-4.2909,-4.2806,-4.2805,-4.2827,-4.2976,-4.3023,-4.3039,-4.323,-4.3091,-4.3101,-4.3108,-4.3112,-4.3553,-4.3558,0,0,0,0,0,0,-4.245,-4.2483,-4.2753,-4.2764,-4.2579,-4.2712,-4.2734,-4.2799,-4.2908,-4.292,-4.2831,-4.2826,-4.3006,-4.3025,-4.3045,-4.3236,-4.3103,-4.3114,-4.312,-4.3549,-4.3554,-4.356,0,0,0,0,0,0,-4.2442,-4.2474,-4.2745,-4.2624,-4.2658,-4.2723,-4.2796,-4.2805,-4.2852,-4.2927,-4.2938,-4.2868,-4.3003,-4.3029,-4.317,-4.3242,-4.3119,-4.3129,-4.3543,-4.355,-4.3557,-4.3617,0,0,0,0,0,0,-4.2432,-4.2472,-4.2532,-4.2625,-4.2664,-4.2867,-4.2801,-4.2812,-4.2872,-4.2868,-4.2964,-4.2976,-4.3002,-4.3153,-4.3181,-4.3255,-4.3138,-4.3537,-4.3546,-4.3555,-4.3609,-4.3625,-4.3639,0,0,0,0,0,-4.2419,-4.2541,-4.2535,-4.2567,-4.2741,-4.2871,-4.2894,-4.2921,-4.2878,-4.2939,-4.2987,-4.2973,-4.3229,-4.3167,-4.3199,-4.3278,-4.3532,-4.3544,-4.3554,-4.3602,-4.3622,-4.3639,0,0,0,0,0,0,-4.2454,-4.2554,-4.2548,-4.2704,-4.2779,-4.2868,-4.2946,-4.2941,-4.303,-4.3022,-4.3052,-4.3074,-4.3216,-4.3261,-4.319,-4.3435,-4.3375,-4.3393,-4.34,-4.342,-4.3435,-4.3422,-4.3148,0,0,0,0,0,-4.248,-4.2578,-4.2659,-4.2789,-4.2828,-4.288,-4.2938,-4.2953,-4.3032,-4.3064,-4.3122,-4.3199,-4.3297,-4.3361,-4.3455,-4.3615,-4.3636,-4.3684,-4.37,-4.3712,-4.3727,-4.3816,-4.3838,-4.3595,-4.3595,-4.3595,0,0,-4.2535,-4.2601,-4.2661,-4.2798,-4.2858,-4.2959,-4.2907,-4.3016,-4.3091,-4.308,-4.3217,-4.3262,-4.335,-4.3502,-4.3571,-4.3543,-4.3799,-4.3726,-4.3735,-4.3744,-4.3829,-4.3852,-4.3873,-4.3603,-4.3601,-4.36,0,0,-4.2687,-4.2746,-4.2862,-4.2923,-4.3015,-4.3049,-4.3076,-4.3167,-4.3196,-4.3334,-4.3328,-4.3417,-4.3585,-4.3649,-4.3703,-4.3878,-4.3869,-4.3908,-4.3988,-4.4074,-4.4093,-4.411,-4.4174,-4.4196,-4.3922,-4.3923,-4.3923,0,-4.2743,-4.2895,-4.2921,-4.3032,-4.3092,-4.3086,-4.3203,-4.3261,-4.3379,-4.3421,-4.3388,-4.3599,-4.3658,-4.3824,-4.3867,-4.3911,-4.3943,-4.3897,-4.4088,-4.4106,-4.4122,-4.4183,-4.4206,-4.3927,-4.3926,-4.3926,-4.3925,0,-4.2961,-4.3066,-4.3148,-4.3262,-4.3332,-4.3444,-4.3488,-4.3555,-4.3563,-4.3601,-4.3741,-4.3811,-4.392,-4.396,-4.3969,-4.4128,-4.4108,-4.4081,-4.4022,-4.4149,-4.4207,-4.423,-4.3933,-4.3931,-4.393,-4.3929,0,0,-4.3141,-4.3268,-4.3298,-4.335,-4.345,-4.3532,-4.3644,-4.3751,-4.3808,-4.3889,-4.3985,-4.4127,-4.4103,-4.4164,-4.418,-4.4255,-4.4391,-4.4219,-4.4222,-4.425,-4.4571,-4.4591,-4.4618,-4.4384,-4.4389,-4.4393,-4.4564,0,-4.3303,-4.3503,-4.353,-4.3707,-4.3804,-4.38,-4.3898,-4.3971,-4.4009,-4.4097,-4.4139,-4.4239,-4.42,-4.4237,-4.4311,-4.4358,-4.4456,-4.4346,-4.4474,-4.4478,-4.4453,-4.4648,-4.467,-4.4828,-4.4586,-4.459,-4.4593,0,-4.352,-4.3607,-4.3794,-4.3882,-4.3924,-4.4011,-4.4111,-4.4196,-4.4277,-4.43,-4.4368,-4.4375,-4.4491,-4.4426,-4.4587,-4.4512,-4.4566,-4.4597,-4.4603,-4.4617,-4.4544,-4.4668,-4.4879,-4.4903,-4.4628,-4.4626,-4.4623,0,-4.3634,-4.3798,-4.3931,-4.3976,-4.4081,-4.4143,-4.4189,-4.4267,-4.4329,-4.4416,-4.4457,-4.4556,-4.4611,-4.4687,-4.472,-4.467,-4.4879,-4.4817,-4.4901,-4.4901,-4.4947,-4.4944,-4.5171,-4.498,-4.4979,-4.4979,-4.4978,0,-4.3813,-4.3928,-4.3984,-4.4066,-4.4194,-4.4223,-4.435,-4.4394,-4.4463,-4.4554,-4.4555,-4.464,-4.4678,-4.4769,-4.4795,-4.4925,-4.4949,-4.4971,-4.4977,-4.4971,-4.4969,-4.5008,-4.4998,-4.4985,-4.4984,-4.4982,-4.4981,0,-4.3963,-4.4005,-4.415,-4.4237,-4.4262,-4.4353,-4.4428,-4.4507,-4.4544,-4.4659,-4.4687,-4.4745,-4.4852,-4.4892,-4.5022,-4.504,-4.519,-4.5187,-4.5163,-4.5165,-4.5248,-4.524,-4.5509,-4.5546,-4.5329,-4.5331,-4.5332,0,-4.4075,-4.4163,-4.426,-4.4321,-4.437,-4.4468,-4.4532,-4.4563,-4.463,-4.4729,-4.4797,-4.4903,-4.4991,-4.5161,-4.5215,-4.5315,-4.5314,-4.5401,-4.5329,-4.5321,-4.5317,-4.5312,-4.5321,-4.5415,-4.5417,-4.5419,-4.5421,0,-4.427,-4.4287,-4.4378,-4.4478,-4.4554,-4.4634,-4.4711,-4.4761,-4.4804,-4.4878,-4.4988,-4.5055,-4.5188,-4.5294,-4.5397,-4.5444,-4.5441,-4.5443,-4.5468,-4.5464,-4.5447,-4.5459,-4.5201,-4.5437,-4.5435,-4.5434,-4.5433,-4.5432,-4.4406,-4.4484,-4.4565,-4.4667,-4.4728,-4.4801,-4.488,-4.4927,-4.5019,-4.513,-4.5143,-4.526,-4.534,-4.5477,-4.5529,-4.5622,-4.5598,-4.5634,-4.5644,-4.5652,-4.5659,-4.5431,-4.564,-4.564,-4.5639,-4.5639,-4.5639,0,-4.4602,-4.4653,-4.4747,-4.4856,-4.4936,-4.4925,-4.501,-4.5078,-4.5182,-4.5256,-4.5342,-4.5468,-4.557,-4.5632,-4.5735,-4.5797,-4.5798,-4.5823,-4.582,-4.5831,-4.5673,-4.5642,-4.5821,-4.5821,-4.5821,-4.5821,-4.5821,-4.5821,-4.4714,-4.4846,-4.4872,-4.5035,-4.5085,-4.5201,-4.5251,-4.5317,-4.5377,-4.5518,-4.5603,-4.5643,-4.5712,-4.582,-4.5914,-4.5929,-4.5968,-4.5996,-4.6009,-4.5861,-4.5842,-4.5824,-4.5795,-4.6003,-4.6004,-4.6159,-4.6161,-4.6162]}]]